Torna al catalogo

STARLINK-6230

AttivoComunicazioniVLEO
NORAD 57228·PAYLOAD·🇺🇸 United States

Lanciato Jul 7, 2023 da Vandenberg Space Force Base

Loading…

Prossimi Passaggi (prossime 24 ore)

TLE

AggiornatoSource: CelesTrak SupGP

Epoca: Sep 15, 2026, 02:18 UTC

1 57228C 23094L   26258.09631944 -.00034461  00000+0 -12480-2 0  2585
2 57228  43.0036  40.6118 0001823 272.2060 240.0808 15.27600494    16

Traccia STARLINK-6230 in tempo reale con AllMySat

Download on the App Store